Regional Weather Roundup
Issued by NWS

Home | Current Version | Previous Version | Text Only | Print | Product List | Glossary Off
Versions: 1 2 3 4 5 6 7 8 9 10 11 12 13 14 15 16 17 18 19 20 21 22 23 24 25 26 27 28 29 30 31 32 33 34 35 36 37 38 39 40 41 42 43 44 45 46 47 48 49 50

000
ASUS43 KLOT 301108
RWRIL

ILLINOIS REGIONAL WEATHER ROUNDUP
NATIONAL WEATHER SERVICE CHICAGO/ROMEOVILLE IL
600 AM CDT MON MAR 30 2015

NOTE: "FAIR" INDICATES FEW OR NO CLOUDS BELOW 12,000 FEET WITH NO
SIGNIFICANT WEATHER AND/OR OBSTRUCTIONS TO VISIBILITY.

* THESE STATIONS ARE NOT UNDER NWS QUALITY CONTROL. THEY ALSO MAY NOT
  REPORT WEATHER SUCH AS PRECIPITATION OR FOG.

ILZ001-002-007-009-015-016-024-301200-
NORTHWEST ILLINOIS

CITY           SKY/WX    TMP DP  RH WIND       PRES   REMARKS
MOLINE         CLEAR     29  25  85 SW8       30.07R WCI  21
STERLING*      CLEAR     32  27  80 W7        30.05R WCI  26
SAVANNA*       CLEAR     32  28  85 CALM      30.04S
$$

ILZ003-004-008-010-011-017-018-301200-
NORTH CENTRAL ILLINOIS

CITY           SKY/WX    TMP DP  RH WIND       PRES   REMARKS
ROCKFORD       CLEAR     35  27  72 W6        30.03R WCI  30
FREEPORT*      CLEAR     34  28  80 SW8       30.04R WCI  27
ROCHELLE*      CLEAR     30  28  89 W7        30.04R WCI  24
DE KALB*       CLEAR     34  28  77 W10       30.02R WCI  26
PERU*          CLEAR     34  29  82 W10       30.06R WCI  26
$$

ILZ005-006-012>014-019>023-301200-
NORTHEAST ILLINOIS

CITY           SKY/WX    TMP DP  RH WIND       PRES   REMARKS
CHICAGO-OHARE  CLEAR     35  28  75 W9        29.99R WCI  28
CHICAGO-MIDWAY CLEAR     37  29  72 W7        30.01R WCI  32
AURORA         CLEAR     31  26  82 W3        30.02R
LANSING*       CLEAR     33  26  77 W6        30.01R WCI  27
JOLIET*        CLEAR     35  30  81 W5        30.04R WCI  31
WAUKEGAN       CLEAR     34  28  79 VRB3      29.98R
DUPAGE AIRPORT CLEAR     36  28  73 W10       30.00R WCI  28
KANKAKEE*      CLEAR     32  29  90 W8        30.04R WCI  25
WHEELING       CLEAR     36  28  73 W6        30.01R WCI  31
MORRIS*        CLEAR     30  27  88 W8        30.03R WCI  23
ROMEOVILLE*    CLEAR     32  27  81 W6        30.02R WCI  26
NORTHERLY ISL    N/A     40  29  65 W9          N/A
$$

LMZ740>746-301200-
SOUTHERN LAKE MICHIGAN

STATION/POSITION SKY/WX   TEMP    WIND        PRES    VSBY  WAVE
                          AIR SEA DIR/SP/G                  HT/PER
                          (F)     (DEG/KT/KT) (MB)    (MI)  (FT/S)
HARRISON CRIB              40     270/ 13/ 15   N/A
BURNHAM HARBOR             39     260/ 10/ 12   N/A
CALUMET HARBOR             38     250/  5/  7 1014.3R
BURNS HARBOR               39     250/ 11/ 12 1015.9R
MICHIGAN CITY              37     220/ 13/ 14   N/A
$$

ILZ025>027-034>036-040-047-049-050-058-095>099-301200-
WEST-CENTRAL ILLINOIS

CITY           SKY/WX    TMP DP  RH WIND       PRES   REMARKS
QUINCY         CLEAR     38  30  73 W7        30.14R WCI  33
GALESBURG*     CLEAR     35  28  77 SW3       30.09R
MACOMB*        CLEAR     35  29  78 W10       30.13R WCI  27
JACKSONVILLE*  CLEAR     37  31  79 SW7       30.13R WCI  31
PITTSFIELD*    CLEAR     40  32  73 W6        30.15R
$$

ILZ028>032-037-038-041>044-048-051>054-059>061-301200-
CENTRAL ILLINOIS

CITY           SKY/WX    TMP DP  RH WIND       PRES   REMARKS
PONTIAC        CLEAR     35  31  86 W7        30.06R WCI  29
BLOOMINGTON    CLEAR     37  30  76 W9        30.08R WCI  30
DECATUR        CLEAR     43  30  60 NW10      30.10R
PEORIA         CLEAR     37  27  67 W5        30.09R WCI  33
LACON*         CLEAR     36  28  73 CALM      30.07R
LINCOLN*       CLEAR     41  30  63 W5        30.10R
SPRINGFIELD    CLEAR     35  28  75 W9        30.12R WCI  28
TAYLORVILLE    CLEAR     36  32  87 W9        30.11R WCI  29
$$

ILZ033-039-045-046-055>057-062-063-301200-
EAST-CENTRAL ILLINOIS

CITY           SKY/WX    TMP DP  RH WIND       PRES   REMARKS
CHAMPAIGN      CLEAR     34  29  82 W10       30.07R WCI  26
DANVILLE*      CLEAR     36  30  80 W10       30.02R WCI  28
RANTOUL*       CLEAR     35  31  87 W9        30.06R WCI  27
MATTOON        CLEAR     36  30  79 NW12      30.07R WCI  28
PARIS*         CLEAR     36  32  86 W8        30.07R WCI  30
$$

ILZ079-100>102-301200-
SOUTHWEST ILLINOIS

CITY           SKY/WX    TMP DP  RH WIND       PRES   REMARKS
ALTON          CLEAR     37  34  89 NW6       30.15R WCI  32
BELLEVILLE     CLEAR     41  39  93 NW5       30.13R
CAHOKIA*       CLEAR     43  36  76 W7        30.15R
SPARTA*        CLEAR     43  38  80 NW6       30.15R
$$

ILZ064>066-069>071-074>076-080>082-084>086-088>090-092>094-301200-
SOUTH-CENTRAL ILLINOIS

CITY           SKY/WX    TMP DP  RH WIND       PRES   REMARKS
CARBONDALE     CLEAR     44  37  76 NW8       30.14R
CAIRO*         CLEAR     47  40  77 NW3       30.14R
EFFINGHAM*     CLEAR     38  30  72 W7        30.11R WCI  32
MARION         CLEAR     48  37  66 NW3       30.14R
MT. VERNON     CLEAR     39  30  70 CALM      30.13R
CENTRALIA*     CLEAR     42  34  74 NW7       30.13R
SALEM*         CLEAR     45  35  67 NW8       30.13R
METROPOLIS*    CLEAR     42  40  93 CALM      30.13R
$$

ILZ067-068-072-073-078-083-087-091-301200-
SOUTHEAST ILLINOIS

CITY           SKY/WX    TMP DP  RH WIND       PRES   REMARKS
LAWRENCEVILLE  CLEAR     40  34  79 W6        30.08R
FLORA*         CLEAR     43  34  69 NW10      30.11R
FAIRFIELD*     CLEAR     43  36  76 W3        30.11R
HARRISBURG*    CLEAR     43  37  78 NW5       30.14R
ROBINSON*      CLEAR     39  33  80 NW9       30.08R WCI  33
CARMI*         CLEAR     40  33  74 W7        30.11R
$$

ABBREVIATIONS USED IN REMARKS
   TC - TEMPERATURE IN CELSIUS
  WCI - WIND CHILL INDEX
   HX - HEAT INDEX
  VSB - VISIBILITY
$$



USA.gov is the U.S. government's official web portal to all federal, state and local government web resources and services.